This is the latest recevied weather packets stored in our database for station/object KD9ZDW. If no packets are shown the sender has not sent any weather packets the latest 1 day(s).
| Time | Temp. | Humidity | Pressure | Rain* | Wind** | Luminosity | Snow |
|---|---|---|---|---|---|---|---|
| 1778032774 | 6.67° C | 92% | 1011.6 hPa | 0 mm | - | 0 W/m² | - |
| 1778032472 | 7.22° C | 91% | 1011.6 hPa | 0 mm | - | 0 W/m² | - |
| 1778032168 | 6.67° C | 91% | 1011.5 hPa | 0 mm | - | 0 W/m² | - |
| 1778031865 | 6.67° C | 91% | 1011.5 hPa | 0 mm | - | 0 W/m² | - |
| 1778031561 | 6.67° C | 91% | 1011.5 hPa | 0 mm | - | 0 W/m² | - |
| 1778031260 | 7.22° C | 91% | 1011.5 hPa | 0 mm | - | 0 W/m² | - |
| 1778030956 | 6.67° C | 90% | 1011.5 hPa | 0 mm | - | 0 W/m² | - |
| 1778030652 | 6.67° C | 90% | 1011.1 hPa | 0 mm | - | 0 W/m² | - |
| 1778029442 | 6.67° C | 93% | 1010.9 hPa | 0 mm | - | 0 W/m² | - |
| 1778029138 | 7.22° C | 94% | 1010.9 hPa | 0 mm | - | 0 W/m² | - |
| 1778028531 | 7.78° C | 95% | 1011 hPa | 1.78 mm | - | 0 W/m² | - |
| 1778028229 | 8.33° C | 95% | 1011 hPa | 1.78 mm | - | 0 W/m² | - |
| 1778027621 | 8.89° C | 95% | 1011.1 hPa | 1.27 mm | - | 1 W/m² | - |
| 1778027318 | 8.89° C | 95% | 1011 hPa | 0 mm | - | 1 W/m² | - |
| 1778027014 | 8.89° C | 95% | 1010.8 hPa | 0 mm | - | 2 W/m² | - |
| 1778026407 | 8.89° C | 95% | 1011 hPa | 1.78 mm | - | 3 W/m² | - |
| 1778026104 | 8.89° C | 95% | 1011.1 hPa | 0 mm | - | 4 W/m² | - |
| 1778025196 | 8.89° C | 94% | 1010.9 hPa | 1.78 mm | - | 8 W/m² | - |
| 1778024893 | 8.89° C | 94% | 1010.9 hPa | 1.78 mm | - | 10 W/m² | - |
| 1778024591 | 8.89° C | 94% | 1010.8 hPa | 1.78 mm | - | 11 W/m² | - |
| 1778023682 | 8.89° C | 94% | 1010.5 hPa | 1.27 mm | - | 15 W/m² | - |
| 1778022169 | 8.89° C | 93% | 1011.1 hPa | 0 mm | - | 20 W/m² | - |
| 1778021563 | 8.33° C | 93% | 1010.8 hPa | 1.27 mm | - | 21 W/m² | - |
| 1778020653 | 8.89° C | 93% | 1010.7 hPa | 1.78 mm | - | 30 W/m² | - |
| 1778018228 | 8.89° C | 92% | 1010.9 hPa | 3.05 mm | - | 28 W/m² | - |
* Rain latest hour (hover to see other rain measurements)
** Current wind speed in m/s (hover to see current wind gust speed)